Location: *
(41.7492°S, 135.4150°W)
Time: 19:04:50
(UTC+00:00)

Lacrosse 5 rocket - Pass Details

Date: 20 September 2021
Orbit: 464 x 629 km, 57.0° (Epoch: 16 October)

Event Time Altitude Azimuth Distance (km) Brightness Sun altitude
Exits shadow 12:41:02 12° 188° (S) 1,508 3.7 -25.0°
Drops below altitude 10° 12:42:03 10° 173° (S) 1,652 4.1 -24.8°
Sets 12:45:14 0° 143° (SE) 2,541 5.6 -24.2°
